Regional Weather Roundup
Issued by NWS Cleveland, OH

Home | Current Version | Previous Version | Text Only | Print | Product List | Glossary Off
Versions: 1 2 3 4 5 6 7 8 9 10 11 12 13 14 15 16 17 18 19 20 21 22 23 24 25 26 27 28 29 30 31 32 33 34 35 36 37 38 39 40 41 42 43 44 45 46 47 48 49 50

000
ASUS41 KCLE 121012
RWRCLE
OHIO REGIONAL WEATHER ROUNDUP
NATIONAL WEATHER SERVICE WILMINGTON, OH
500 AM EST TUE DEC 12 2017

NOTE: "FAIR" INDICATES FEW OR NO CLOUDS BELOW 12,000 FEET WITH NO
SIGNIFICANT WEATHER AND/OR OBSTRUCTIONS TO VISIBILITY.

OHZ001>008-015>018-024>027-034-035-043-044-121100-
   NORTHWEST OHIO

CITY           SKY/WX    TMP DP  RH WIND       PRES   REMARKS
DEFIANCE       CLOUDY    29  21  72 NW17G28   29.78R WCI  17
FINDLAY        CLOUDY    31  23  72 NW13G23   29.72R WCI  21
TOLEDO EXPRESS LGT SNOW  28  26  92 NW13G24   29.74R FOG     WCI  17
TOLEDO EXEC    CLOUDY    31  24  75 NW17      29.73R WCI  19
LIMA           CLOUDY    31  26  82 NW18      29.74R WCI  19
$$

OHZ009>014-019>023-028>033-038-089-121100-
   NORTHEAST OHIO

CITY           SKY/WX    TMP DP  RH WIND       PRES   REMARKS
CLE-HOPKINS    LGT SNOW  33  31  92 NW16      29.65R FOG     WCI  23
CLE-LAKEFRONT  LGT SNOW  34  31  88 NW22      29.61R FOG     WCI  22
CUY CO. ARPT   NOT AVBL
LORAIN-ELYRIA  LGT SNOW  31  26  82 NW18G29   29.65R WCI  19
ASHTABULA      LGT SNOW  32  30  92 NW13      29.56S FOG     WCI  22
AKRON-CANTON   LGT SNOW  31  27  85 W10       29.59S FOG     WCI  22
WOOSTER        MIX PCPN  31  29  92 NW17      29.63R FOG     WCI  19
MANSFIELD      FRZ RAIN  30  29  96 W13G18    29.66R FOG     WCI  20
YOUNGSTOWN     LGT SNOW  29  27  92 W7        29.56R VSB 1   WCI  22
$$

OHZ042-051>053-060>062-070>072-077>081-121100-
  SOUTHWEST OHIO

CITY           SKY/WX    TMP DP  RH WIND       PRES   REMARKS
CINC-COVINGTON DRIZZLE   35  31  85 NW18      29.82R WCI  24
CINC-LUNKEN    CLOUDY    37  30  75 W10       29.84R
HAMILTON       CLOUDY    35  33  92 W12       29.83R FOG     WCI  27
DAYTON         FRZ DRZL  32  32 100 NW21G26   29.78R FOG     WCI  20
WRIGHT-PAT AFB LGT SNOW  34  34 100 NW13G20   29.77R FOG     WCI  25
DAYTON GENERAL LGT RAIN  34  31  88 NW16G23   29.78R FOG     WCI  24
WILMINGTON     LGT RAIN  33  32  96 W17G25    29.77R FOG     WCI  22
$$

OHZ036-037-039>041-045>050-054>059-063>069-073>076-082>088-121100-
  CENTRAL AND SOUTHEAST OHIO

CITY           SKY/WX    TMP DP  RH WIND       PRES   REMARKS
COLUMBUS       LGT SNOW  34  30  85 NW17G25   29.72R FOG     WCI  23
OSU AIRPORT    CLOUDY    32  31  96 W14G24    29.72R FOG     WCI  22
BOLTON FIELD   CLOUDY    32  30  92 NW14G20   29.73R FOG     WCI  22
RICKENBACK AFB CLOUDY    33  30  88 NW14G25   29.74R WCI  23
NEWARK         CLOUDY    34  28  79 NW9       29.69R WCI  27
MARION         NOT AVBL
LANCASTER      CLOUDY    35  29  78 W9        29.72R WCI  28
ZANESVILLE     CLOUDY    37  28  70 NW13G21   29.66R
NEW PHILLY     FLURRIES  34  31  88 W9G17     29.63R WCI  27
$$



USA.gov is the U.S. government's official web portal to all federal, state and local government web resources and services.